ENY2561 KMIA-MYAM

Flight info

Callsign ENY2561
Flight time 0h 41m
Altitude 25000
Route FOLZZ3 ZFP
Aircraft E75L/M-SDE3GILORVW/S

Departure

Time 2026-04-30 21:39
Airport Miami International Airport (KMIA)

Arrival

Time 2026-04-30 22:21
Airport Leonard M. Thompson International Airport (MYAM)
Time Latitude Longitude Altitude Speed Heading
2026-04-30 21:04 25.79706 -80.28524 12 ft 0 kts 21°
2026-04-30 21:25 25.79691 -80.28526 12 ft 2 kts 349°
2026-04-30 21:25 25.79677 -80.28519 12 ft 2 kts 321°
2026-04-30 21:25 25.79668 -80.28507 11 ft 2 kts 292°
2026-04-30 21:26 25.79668 -80.28479 12 ft 0 kts 262°
2026-04-30 21:31 25.79665 -80.28497 11 ft 2 kts 261°
2026-04-30 21:31 25.79658 -80.28539 12 ft 3 kts 261°
2026-04-30 21:32 25.79652 -80.28599 12 ft 4 kts 265°
2026-04-30 21:32 25.79650 -80.28636 12 ft 5 kts 266°
2026-04-30 21:32 25.79647 -80.28677 12 ft 5 kts 265°
2026-04-30 21:32 25.79643 -80.28722 11 ft 6 kts 265°
2026-04-30 21:33 25.79644 -80.28771 12 ft 6 kts 283°
2026-04-30 21:33 25.79725 -80.28811 11 ft 8 kts
2026-04-30 21:33 25.79783 -80.28813 11 ft 8 kts 357°
2026-04-30 21:34 25.79848 -80.28817 12 ft 9 kts 358°
2026-04-30 21:34 25.79991 -80.28832 11 ft 11 kts 326°
2026-04-30 21:34 25.80012 -80.28909 12 ft 11 kts 267°
2026-04-30 21:35 25.80008 -80.28998 12 ft 11 kts 267°
2026-04-30 21:35 25.80004 -80.29090 11 ft 12 kts 267°
2026-04-30 21:35 25.80002 -80.29188 12 ft 12 kts 270°
2026-04-30 21:35 25.79997 -80.29289 11 ft 13 kts 268°
2026-04-30 21:36 25.79991 -80.29394 12 ft 13 kts 266°
2026-04-30 21:36 25.79985 -80.29504 11 ft 14 kts 268°
2026-04-30 21:37 25.79972 -80.29861 12 ft 14 kts 268°
2026-04-30 21:37 25.79980 -80.29975 12 ft 15 kts 284°
2026-04-30 21:37 25.80014 -80.30091 12 ft 14 kts 302°
2026-04-30 21:37 25.80069 -80.30122 11 ft 8 kts 54°
2026-04-30 21:38 25.80073 -80.30064 11 ft 1 kts 88°
2026-04-30 21:38 25.80073 -80.30063 11 ft 0 kts 88°
2026-04-30 21:38 25.80078 -80.29895 12 ft 53 kts 88°
2026-04-30 21:38 25.80106 -80.29242 12 ft 112 kts 88°
2026-04-30 21:39 25.80156 -80.28207 35 ft 153 kts 89°
2026-04-30 21:39 25.80093 -80.27080 569 ft 142 kts 114°
2026-04-30 21:39 25.79602 -80.26125 957 ft 150 kts 127°
2026-04-30 21:39 25.78971 -80.25108 1334 ft 163 kts 127°
2026-04-30 21:40 25.78442 -80.24032 1912 ft 164 kts 110°
2026-04-30 21:40 25.78116 -80.22820 2498 ft 168 kts 109°
2026-04-30 21:40 25.77770 -80.21519 2866 ft 184 kts 108°
2026-04-30 21:40 25.77393 -80.20108 3177 ft 200 kts 107°
2026-04-30 21:41 25.76982 -80.18572 3512 ft 215 kts 109°
2026-04-30 21:41 25.76308 -80.17031 3806 ft 232 kts 119°
2026-04-30 21:41 25.75510 -80.15418 4097 ft 249 kts 119°
2026-04-30 21:41 25.74638 -80.13659 4382 ft 266 kts 118°
2026-04-30 21:42 25.74060 -80.11669 4665 ft 280 kts 89°
2026-04-30 21:42 25.74554 -80.09580 4984 ft 288 kts 55°
2026-04-30 21:42 25.75865 -80.07880 5304 ft 297 kts 44°
2026-04-30 21:42 25.77279 -80.06168 5575 ft 311 kts 45°
2026-04-30 21:43 25.78748 -80.04341 5876 ft 322 kts 46°
2026-04-30 21:43 25.80245 -80.02456 6312 ft 327 kts 46°
2026-04-30 21:43 25.81743 -80.00561 6854 ft 328 kts 46°
2026-04-30 21:43 25.83230 -79.98674 7505 ft 324 kts 46°
2026-04-30 21:44 25.84717 -79.96786 8210 ft 321 kts 46°
2026-04-30 21:44 25.86168 -79.94943 8777 ft 317 kts 46°
2026-04-30 21:44 25.87597 -79.93124 9412 ft 312 kts 46°
2026-04-30 21:44 25.89003 -79.91336 10043 ft 307 kts 45°
2026-04-30 21:45 25.90400 -79.89558 10681 ft 302 kts 46°
2026-04-30 21:45 25.91770 -79.87814 11318 ft 296 kts 45°
2026-04-30 21:45 25.93102 -79.86118 12068 ft 290 kts 45°
2026-04-30 21:45 25.94402 -79.84460 12703 ft 283 kts 44°
2026-04-30 21:46 25.95675 -79.82838 13305 ft 276 kts 44°
2026-04-30 21:46 25.96930 -79.81240 13821 ft 274 kts 43°
2026-04-30 21:46 25.98190 -79.79634 14307 ft 272 kts 43°
2026-04-30 21:46 25.99412 -79.78075 14782 ft 269 kts 43°
2026-04-30 21:47 26.00633 -79.76517 15253 ft 266 kts 43°
2026-04-30 21:47 26.01833 -79.74985 15726 ft 262 kts 43°
2026-04-30 21:47 26.03027 -79.73460 16206 ft 258 kts 43°
2026-04-30 21:47 26.04183 -79.71983 16669 ft 253 kts 43°
2026-04-30 21:48 26.05319 -79.70531 17131 ft 247 kts 43°
2026-04-30 21:48 26.06433 -79.69106 17593 ft 240 kts 41°
2026-04-30 21:48 26.07509 -79.67730 18027 ft 233 kts 41°
2026-04-30 21:48 26.08548 -79.66402 18394 ft 228 kts 42°
2026-04-30 21:49 26.09614 -79.65043 18447 ft 240 kts 42°
2026-04-30 21:49 26.10720 -79.63578 18557 ft 251 kts 47°
2026-04-30 21:49 26.11746 -79.61974 18676 ft 260 kts 48°
2026-04-30 21:49 26.12817 -79.60292 18787 ft 269 kts 49°
2026-04-30 21:50 26.13919 -79.58557 18909 ft 278 kts 49°
2026-04-30 21:50 26.15047 -79.56782 19015 ft 287 kts 49°
2026-04-30 21:50 26.16216 -79.54941 19126 ft 295 kts 49°
2026-04-30 21:50 26.17417 -79.53048 19350 ft 298 kts 49°
2026-04-30 21:51 26.18608 -79.51168 19639 ft 299 kts 49°
2026-04-30 21:51 26.19794 -79.49299 19961 ft 297 kts 49°
2026-04-30 21:51 26.20988 -79.47414 20288 ft 295 kts 49°
2026-04-30 21:51 26.22162 -79.45562 20600 ft 293 kts 49°
2026-04-30 21:52 26.23334 -79.43711 20926 ft 290 kts 49°
2026-04-30 21:52 26.24493 -79.41883 21237 ft 288 kts 49°
2026-04-30 21:52 26.25633 -79.40082 21550 ft 284 kts 49°
2026-04-30 21:52 26.26763 -79.38294 21866 ft 281 kts 49°
2026-04-30 21:53 26.27875 -79.36536 22164 ft 277 kts 49°
2026-04-30 21:53 26.28881 -79.34879 22451 ft 275 kts 58°
2026-04-30 21:53 26.29743 -79.32814 22714 ft 276 kts 60°
2026-04-30 21:53 26.30535 -79.30849 22841 ft 280 kts 61°
2026-04-30 21:54 26.31326 -79.28884 22986 ft 283 kts 61°
2026-04-30 21:54 26.32132 -79.26881 23128 ft 286 kts 60°
2026-04-30 21:54 26.32946 -79.24854 23268 ft 289 kts 61°
2026-04-30 21:54 26.33762 -79.22816 23597 ft 283 kts 61°
2026-04-30 21:55 26.34547 -79.20856 24107 ft 270 kts 60°
2026-04-30 21:55 26.35301 -79.18975 24387 ft 266 kts 60°
2026-04-30 21:55 26.36048 -79.17114 24622 ft 263 kts 60°
2026-04-30 21:55 26.36793 -79.15254 24857 ft 259 kts 60°
2026-04-30 21:56 26.37529 -79.13419 24990 ft 261 kts 60°
2026-04-30 21:56 26.38271 -79.11569 25014 ft 267 kts 60°
2026-04-30 21:56 26.39038 -79.09652 25030 ft 273 kts 60°
2026-04-30 21:56 26.39825 -79.07685 25024 ft 281 kts 61°
2026-04-30 21:57 26.40628 -79.05676 25029 ft 288 kts 61°
2026-04-30 21:57 26.41460 -79.03592 25021 ft 296 kts 60°
2026-04-30 21:57 26.42299 -79.01492 25021 ft 304 kts 61°
2026-04-30 21:57 26.43181 -78.99281 25020 ft 312 kts 61°
2026-04-30 21:58 26.44069 -78.97055 25030 ft 319 kts 62°
2026-04-30 21:58 26.44985 -78.94757 25026 ft 327 kts 61°
2026-04-30 21:58 26.45912 -78.92430 25032 ft 334 kts 61°
2026-04-30 21:58 26.46859 -78.90050 25025 ft 341 kts 61°
2026-04-30 21:59 26.47835 -78.87599 25025 ft 348 kts 62°
2026-04-30 21:59 26.48828 -78.85101 25022 ft 355 kts 62°
2026-04-30 21:59 26.49845 -78.82541 25028 ft 361 kts 62°
2026-04-30 22:00 26.51706 -78.77261 25018 ft 378 kts 81°
2026-04-30 22:00 26.51806 -78.71259 25034 ft 391 kts 88°
2026-04-30 22:00 26.51794 -78.68199 25025 ft 397 kts 88°
2026-04-30 22:01 26.51780 -78.65110 25024 ft 402 kts 88°
2026-04-30 22:01 26.51764 -78.61976 25025 ft 407 kts 88°
2026-04-30 22:01 26.51746 -78.58775 25023 ft 411 kts 88°
2026-04-30 22:01 26.51728 -78.55591 25022 ft 415 kts 88°
2026-04-30 22:02 26.51709 -78.52326 25017 ft 420 kts 88°
2026-04-30 22:02 26.51689 -78.49033 24468 ft 435 kts 88°
2026-04-30 22:02 26.51667 -78.45674 23821 ft 428 kts 88°
2026-04-30 22:02 26.51645 -78.42418 23149 ft 422 kts 88°
2026-04-30 22:03 26.51623 -78.39148 22487 ft 416 kts 89°
2026-04-30 22:03 26.51600 -78.35970 21899 ft 410 kts 88°
2026-04-30 22:03 26.51577 -78.32824 21302 ft 405 kts 89°
2026-04-30 22:03 26.51554 -78.29703 20703 ft 400 kts 89°
2026-04-30 22:04 26.51530 -78.26614 20103 ft 396 kts 89°
2026-04-30 22:04 26.51506 -78.23571 19499 ft 391 kts 89°
2026-04-30 22:04 26.51456 -78.17587 18276 ft 383 kts 89°
2026-04-30 22:05 26.51431 -78.14614 17657 ft 379 kts 89°
2026-04-30 22:05 26.51405 -78.11701 16968 ft 372 kts 89°
2026-04-30 22:05 26.51379 -78.08871 16297 ft 359 kts 88°
2026-04-30 22:05 26.51354 -78.06129 15620 ft 344 kts 88°
2026-04-30 22:06 26.51330 -78.03548 14975 ft 331 kts 88°
2026-04-30 22:06 26.51283 -77.98580 13689 ft 312 kts 88°
2026-04-30 22:06 26.51259 -77.96202 13051 ft 304 kts 88°
2026-04-30 22:07 26.51229 -77.93874 12413 ft 298 kts 88°
2026-04-30 22:07 26.51209 -77.91582 11769 ft 292 kts 88°
2026-04-30 22:07 26.51188 -77.89326 11128 ft 287 kts 88°
2026-04-30 22:07 26.51166 -77.87135 10598 ft 281 kts 89°
2026-04-30 22:08 26.51143 -77.84950 10122 ft 276 kts 89°
2026-04-30 22:08 26.51121 -77.82834 9637 ft 273 kts 89°
2026-04-30 22:08 26.51098 -77.80734 9152 ft 269 kts 89°
2026-04-30 22:08 26.51075 -77.78672 8669 ft 266 kts 89°
2026-04-30 22:09 26.51052 -77.76605 8180 ft 264 kts 89°
2026-04-30 22:09 26.51029 -77.74593 7700 ft 261 kts 89°
2026-04-30 22:09 26.51006 -77.72565 7213 ft 259 kts 90°
2026-04-30 22:09 26.50983 -77.70585 6730 ft 256 kts 90°
2026-04-30 22:10 26.50959 -77.68602 6246 ft 254 kts 90°
2026-04-30 22:10 26.50936 -77.66660 5766 ft 252 kts 90°
2026-04-30 22:10 26.50913 -77.64705 5274 ft 250 kts 90°
2026-04-30 22:10 26.50889 -77.62792 4793 ft 248 kts 90°
2026-04-30 22:11 26.50842 -77.58971 3819 ft 245 kts 91°
2026-04-30 22:11 26.50818 -77.57080 3332 ft 243 kts 91°
2026-04-30 22:11 26.50794 -77.55212 2980 ft 235 kts 91°
2026-04-30 22:12 26.50772 -77.53429 2941 ft 227 kts 91°
2026-04-30 22:12 26.50748 -77.51653 2943 ft 230 kts 91°
2026-04-30 22:12 26.50725 -77.49863 2942 ft 230 kts 91°
2026-04-30 22:12 26.50701 -77.48079 2936 ft 226 kts 91°
2026-04-30 22:13 26.50679 -77.46396 2906 ft 208 kts 91°
2026-04-30 22:13 26.50658 -77.44846 2939 ft 191 kts 91°
2026-04-30 22:13 26.50638 -77.43385 2987 ft 187 kts 91°
2026-04-30 22:13 26.50618 -77.41929 2962 ft 190 kts 91°
2026-04-30 22:14 26.50598 -77.40430 2694 ft 197 kts 91°
2026-04-30 22:14 26.50576 -77.38889 2365 ft 198 kts 91°
2026-04-30 22:14 26.50555 -77.37407 2245 ft 187 kts 91°
2026-04-30 22:14 26.50535 -77.35989 2380 ft 181 kts 91°
2026-04-30 22:15 26.50515 -77.34577 2247 ft 180 kts 92°
2026-04-30 22:15 26.50495 -77.33212 2234 ft 175 kts 92°
2026-04-30 22:15 26.50476 -77.31886 2208 ft 163 kts 91°
2026-04-30 22:15 26.50458 -77.30650 2223 ft 159 kts 91°
2026-04-30 22:16 26.50464 -77.29404 2261 ft 163 kts 89°
2026-04-30 22:16 26.50500 -77.28076 2519 ft 181 kts 89°
2026-04-30 22:17 26.50603 -77.24223 1962 ft 156 kts 89°
2026-04-30 22:17 26.50635 -77.23019 1666 ft 152 kts 89°
2026-04-30 22:17 26.50693 -77.20828 1546 ft 140 kts 90°
2026-04-30 22:18 26.50721 -77.19733 1553 ft 142 kts 90°
2026-04-30 22:18 26.50773 -77.17512 1512 ft 141 kts 91°
2026-04-30 22:19 26.50810 -77.15311 1206 ft 142 kts 86°
2026-04-30 22:19 26.50861 -77.14218 1061 ft 139 kts 90°
2026-04-30 22:19 26.50917 -77.12031 603 ft 136 kts 89°
2026-04-30 22:20 26.50948 -77.10998 343 ft 131 kts 89°
2026-04-30 22:20 26.51001 -77.09016 13 ft 117 kts 89°
2026-04-30 22:20 26.51022 -77.08281 16 ft 51 kts 87°
2026-04-30 22:21 26.51084 -77.08054 17 ft 20 kts 60°
2026-04-30 22:21 26.51144 -77.07946 17 ft 13 kts 58°
2026-04-30 22:21 26.51186 -77.07870 17 ft 10 kts 58°
2026-04-30 22:21 26.51221 -77.07809 17 ft 6 kts 45°
2026-04-30 22:22 26.51251 -77.07822 17 ft 4 kts 355°
2026-04-30 22:22 26.51280 -77.07816 17 ft 2 kts 11°
2026-04-30 22:22 26.51281 -77.07816 17 ft 0 kts 10°